Regional Weather Roundup
Issued by NWS

Home | Current Version | Previous Version | Text Only | Print | Product List | Glossary On
Versions: 1 2 3 4 5 6 7 8 9 10 11 12 13 14 15 16 17 18 19 20 21 22 23 24 25 26 27 28 29 30 31 32 33 34 35 36 37 38 39 40 41 42 43 44 45 46 47 48 49 50
000
ASUS43 KLOT 270200
RWRIL

ILLINOIS REGIONAL WEATHER ROUNDUP
NATIONAL WEATHER SERVICE CHICAGO/ROMEOVILLE IL
800 PM CST MON JAN 26 2015

NOTE: "FAIR" INDICATES FEW OR NO CLOUDS BELOW 12,000 FEET WITH NO
SIGNIFICANT WEATHER AND/OR OBSTRUCTIONS TO VISIBILITY.

* THESE STATIONS ARE NOT UNDER NWS QUALITY CONTROL. THEY ALSO MAY NOT
  REPORT WEATHER SUCH AS PRECIPITATION OR FOG.

ILZ001-002-007-009-015-016-024-270300-
NORTHWEST ILLINOIS

CITY           SKY/WX    TMP DP  RH WIND       PRES   REMARKS
MOLINE         CLOUDY    32  30  92 CALM      29.86S FOG
STERLING*      CLOUDY    28  27  93 CALM      29.88S
$$

ILZ003-004-008-010-011-017-018-270300-
NORTH CENTRAL ILLINOIS

CITY           SKY/WX    TMP DP  RH WIND       PRES   REMARKS
ROCKFORD       FRZ DRZL  26  23  88 S5        29.90S FOG     WCI  20
$$

ILZ005-006-012>014-019>023-270300-
NORTHEAST ILLINOIS

CITY           SKY/WX    TMP DP  RH WIND       PRES   REMARKS
CHICAGO-OHARE  FRZ DRZL  25  24  96 S5        29.90R FOG     WCI  19
CHICAGO-MIDWAY FRZ DRZL  28  24  85 S6        29.90F FOG     WCI  22
AURORA         CLOUDY    27  24  89 SE7       29.89S FOG     WCI  19
WAUKEGAN       LGT SNOW  25  23  92 SE5       29.89S FOG     WCI  19
DUPAGE AIRPORT CLOUDY    26  24  92 S6        29.88S FOG     WCI  19
WHEELING       LGT SNOW  26  24  92 S6        29.92R FOG     WCI  19
NORTHERLY ISL    N/A     26  23  88 S6          N/A  WCI  20
$$

LMZ740>746-270300-
SOUTHERN LAKE MICHIGAN

STATION/POSITION SKY/WX   TEMP    WIND        PRES    VSBY  WAVE
                          AIR SEA DIR/SP/G                  HT/PER
                          (F)     (DEG/KT/KT) (MB)    (MI)  (FT/S)
WAUKEGAN HARBOR            26     160/  3/  7   N/A
HARRISON CRIB              26     190/ 11/ 12   N/A
BURNHAM HARBOR             26     170/  5/  8   N/A
CALUMET HARBOR             26     140/  4/  5   N/A
MICHIGAN CITY              24     140/  6/  7   N/A
$$

ILZ025>027-034>036-040-047-049-050-058-095>099-270300-
WEST-CENTRAL ILLINOIS

CITY           SKY/WX    TMP DP  RH WIND       PRES   REMARKS
QUINCY         CLOUDY    38  33  82 SW3       29.89R
$$

ILZ028>032-037-038-041>044-048-051>054-059>061-270300-
CENTRAL ILLINOIS

CITY           SKY/WX    TMP DP  RH WIND       PRES   REMARKS
DECATUR        CLOUDY    30  30 100 S7        29.90R FOG     WCI  23
PEORIA         CLOUDY    31  29  92 S5        29.89S FOG     WCI  26
SPRINGFIELD    CLOUDY    33  29  85 SW5       29.91R WCI  29
TAYLORVILLE    NOT AVBL
$$

ILZ033-039-045-046-055>057-062-063-270300-
EAST-CENTRAL ILLINOIS

CITY           SKY/WX    TMP DP  RH WIND       PRES   REMARKS
CHAMPAIGN      FRZ RAIN  28  27  96 S10       29.90S FOG     WCI  19
MATTOON        CLOUDY    27  25  92 S7        29.91S FOG     WCI  19
$$

ILZ079-100>102-270300-
SOUTHWEST ILLINOIS

CITY           SKY/WX    TMP DP  RH WIND       PRES   REMARKS
ALTON          CLOUDY    34  30  86 S6        29.92S WCI  29
BELLEVILLE     CLOUDY    34  31  91 S2        29.93R
CAHOKIA*       MOCLDY    34  29  82 CALM      29.92S
$$

ILZ064>066-069>071-074>076-080>082-084>086-088>090-092>094-270300-
SOUTH-CENTRAL ILLINOIS

CITY           SKY/WX    TMP DP  RH WIND       PRES   REMARKS
CARBONDALE     CLOUDY    35  29  78 S6        29.93F WCI  30
MT. VERNON     CLOUDY    34  27  75 S3        29.93F
$$

ILZ067-068-072-073-078-083-087-091-270300-
SOUTHEAST ILLINOIS

CITY           SKY/WX    TMP DP  RH WIND       PRES   REMARKS
LAWRENCEVILLE  CLOUDY    28  26  92 SE6       29.96F WCI  22
$$

ABBREVIATIONS USED IN REMARKS
   TC - TEMPERATURE IN CELSIUS
  WCI - WIND CHILL INDEX
   HX - HEAT INDEX
  VSB - VISIBILITY
$$




USA.gov is the U.S. government's official web portal to all federal, state and local government web resources and services.